Weather Service Report


038 
ASUS44 KLUB 240601
RWRTX 
WEST TEXAS WEATHER ROUNDUP
NATIONAL WEATHER SERVICE LUBBOCK TX
1200 AM CST FRI FEB 24 2017

NOTE: "FAIR" INDICATES FEW OR NO CLOUDS BELOW 12,000 FEET WITH NO
SIGNIFICANT WEATHER AND/OR OBSTRUCTIONS TO VISIBILITY.

TXZ004-006>008-010-012-014-016-OKZ002-240700-
TEXAS PANHANDLE/OKLAHOMA PANHANDLE
  
CITY           SKY/WX    TMP DP  RH WIND       PRES   REMARKS
AMARILLO       MOCLDY    36  32  85 N18       29.74R WCI  26          
BORGER         CLOUDY    39  31  72 N17G24    29.76R WCI  30          
CANADIAN       MOCLDY    39  33  79 N18G25    29.74R WCI  30          
DALHART        CLOUDY    36  29  75 N22G29    29.78R WCI  25          
DUMAS          CLOUDY    35  28  77 N24G33    29.76R WCI  22          
GUYMON         CLEAR     32  26  78 N17       29.77R WCI  21          
HEREFORD       CLEAR     36  20  52 N12       29.73R WCI  27          
PAMPA          CLOUDY    38  32  79 N24G31    29.74R WCI  27          
PERRYTON       MOCLDY    36  30  79 N21G26    29.73R WCI  24          
$$

TXZ026-029-035-045-048-240700-
SOUTHERN PANHANDLE/SOUTH PLAINS/ROLLING PLAINS
  
CITY           SKY/WX    TMP DP  RH WIND       PRES   REMARKS
CHILDRESS      CLEAR     56  26  31 N23       29.64R                  
SEMINOLE       CLEAR     59  23  25 W12       29.73R                  
PLAINVIEW      CLEAR     47  16  28 NW10      29.68R                  
SNYDER         CLEAR     60  26  27 W13       29.67R                  
$$

TXZ052-054-060>062-072-078-127-140-154-169-240700-
PERMIAN BASIN/CONCHO VALLEY/BIG COUNTRY/EDWARDS PLATEAU  
  
CITY           SKY/WX    TMP DP  RH WIND       PRES   REMARKS
ABILENE        CLEAR     64  25  22 SW5       29.63R                  
BIG SPRING     CLEAR     58  20  23 W8        29.70S                  
BROWNWOOD      CLOUDY    57  41  54 CALM      29.65R                  
JUNCTION       CLEAR     62  42  47 CALM      29.69R                  
MIDLAND        CLEAR     65  14  14 W16       29.70S                  
ODESSA         CLEAR     64  12  13 W16       29.72S                  
SAN ANGELO     CLOUDY    58  34  40 S9        29.66R                  
SONORA         CLEAR     59  30  33 NE6       29.74S                  
WINK             N/A    N/A N/A N/A MISG      29.72S                  
$$

TXZ055-058-074-075-080-082-240700-
FAR WEST/SOUTHWEST MOUNTAINS/TRANS PECOS
  
CITY           SKY/WX    TMP DP  RH WIND       PRES   REMARKS
ALPINE         CLEAR     65  13  13 W23G35    29.89R                  
DRYDEN           N/A     64  23  21 W9        29.69R                  
EL PASO        CLEAR     56   3  11 W16G29    29.84S                  
FORT STOCKTON  CLEAR     64  12  13 SW14      29.74S                  
GUADALUPE PASS CLEAR     50   6  16 W39G51    29.79R                  
MARFA          CLEAR     54  12  18 W15       29.90R                  
PECOS          CLEAR     60  13  15 SW12      29.74S                  
PRESIDIO       FAIR      69  18  14 W7G18     29.82R                  
$$

TXZ014-016-019-021>030-083-240700
TEXAS TECH WEST TEXAS MESONET/TEXAS PANHANDLE/NORTHERN SOUTH PLAINS
  
CITY           SKY/WX    TMP DP  RH WIND       PRES   REMARKS
ABERNATHY 5ENE   N/A     52  13  20 W13       29.69R                  
AMARILLO 9NNE    N/A     36  31  83 N21       29.74R WCI  25          
AMARILLO 7SSE    N/A     37  30  75 N14       29.73R WCI  29          
AMHERST 1NE      N/A     50  10  19 W12       29.70R                  
BOOTLEG 11WNW    N/A     39  13  33 W7        29.74R WCI  34          
CANADIAN 6E      N/A     37  31  79 NW14      29.70R WCI  29          
CAPROCK CYN SP   N/A     55  14  20 W14       29.66R                  
CHILDRESS 2NNE   N/A     57  21  25 N21       29.63R                  
CLARENDON 2WSW   N/A     42  32  68 N20       29.68R                  
CLAUDE 12SW      N/A     39  31  73 N20       29.70R WCI  29          
DIMMITT 2NE      N/A     38  16  40 W10       29.71R WCI  31          
FLOYDADA 2NNE    N/A     48  10  22 W9        29.68R                  
FRIONA 2NE       N/A     32  14  46 W10       29.73R WCI  24          
GOODLETT 3W      N/A     57  21  25 NW14      29.60R                  
HART 3N          N/A     41  14  33 NW3       29.71R                  
HEREFORD 2NW     N/A     35  16  46 W10       29.71R WCI  27          
MCLEAN 1E        N/A     38  32  79 NW25      29.67R WCI  26          
MEMPHIS 1NE      N/A     49  35  58 N18       29.66R                  
MULESHOE 2SSW    N/A     39  14  35 W6        29.71R                  
OLTON 6S         N/A     44  13  29 NW9       29.70R                  
PALO DURO SP     N/A     41  32  69 N15       29.72R                  
PAMPA 2E         N/A     36  32  85 NW26      29.71R WCI  24          
PLAINVIEW 1S     N/A     51  16  24 W7        29.69R                  
SILVERTON 7ESE   N/A     40  17  39 W9        29.67R WCI  34          
TULIA 2ENE       N/A     44  16  33 W12G21    29.69R                  
TURKEY 2WSW      N/A     53  17  24 W14       29.63R                  
UMBARGER 3NNE    N/A     40  31  68 N18       29.73R WCI  31          
$$

TXZ033>036-039>041-045>048-240700
TEXAS TECH WEST TEXAS MESONET/SOUTH PLAINS  
  
CITY           SKY/WX    TMP DP  RH WIND       PRES   REMARKS
AIKEN 3WSW       N/A     47  17  30 W13       29.70R                  
ANDREWS 2NE      N/A     57  15  19 W10       29.72S                  
ANTON 6SSW       N/A     57  12  16 W20       29.68R                  
BROWNFIELD 2S    N/A     50  19  29 W9        29.71R                  
DENVR CTY 7WNW   N/A     49  19  30 SW13      29.73R                  
GAIL 2ESE        N/A     62  22  22 W13       29.67S                  
LAMESA 2SE       N/A     54  25  32 W9        29.70S                  
LEVELLAND 4S     N/A     52  11  19 W15       29.70R                  
LUBBOCK 3WNW     N/A     57  13  18 W12       29.68R                  
MORTON 1ENE      N/A     53   9  16 SW14      29.70R                  
ODONNELL 1N      N/A     52  20  28 W9        29.70R                  
PLAINS 3N        N/A     48  17  29 W9        29.73R                  
RALLS 1SE        N/A     56  15  20 W12       29.68R                  
REESE CENTER     N/A     55  11  17 W15       29.68R                  
SEAGRAVES 1SW    N/A     51  21  31 SW10      29.72R                  
SEMINOLE 2NNE    N/A     53  20  28 W9        29.72R                  
SLATON 2NE       N/A     59  14  17 W13       29.68R                  
SNYDER 3E        N/A     63  24  23 W14       29.65S                  
SUNDOWN 8SW      N/A     45  15  29 W8        29.72R                  
TAHOKA 3NNE      N/A     55  18  23 W12       29.69R                  
WOLFFORTH 6SSW   N/A     53  14  21 W14       29.70R                  
$$

TXZ031-032-036>038-042>044-240700-
TEXAS TECH WEST TEXAS MESONET/ROLLING PLAINS 
  
CITY           SKY/WX    TMP DP  RH WIND       PRES   REMARKS
ASPERMONT 3NE    N/A     66  20  16 W13       29.62R                  
FLUVANNA 3WNW    N/A     56  22  26 SW5       29.67R                  
GRAHAM 5SSW      N/A     59  20  21 W14       29.68R                  
GUTHRIE 10WSW    N/A     64  17  16 W13       29.62R                  
HASKELL 1NW      N/A     66  21  18 W14       29.59R                  
JAYTON 1SSE      N/A     63  20  19 W9        29.64R                  
KNOX CITY 3NW    N/A     56  24  28 SW8       29.61R                  
LK A HENRY 1NW   N/A     61  20  20 W10       29.65R                  
NORTHFIELD 1S    N/A     56  19  23 W8        29.62R                  
ODELL 4ENE       N/A     61  26  26 NW14      29.59R                  
PADUCAH 10SW     N/A     64  16  15 W17       29.61R                  
POST 1NE         N/A     60  18  19 W14       29.66R                  
RRING SPRGS 3N   N/A     59  13  16 W18       29.65R                  
SEYMOUR 3NW      N/A     66  28  23 SW15      29.57R                  
SPUR 1W          N/A     65  13  13 W12       29.63R                  
WEINERT 2NNE     N/A     59  27  29 W9        29.60R                  
WHITE RVR 6NE    N/A     64  13  13 W23       29.64R                  
$$

TXZ052-054-060>062-072-078-127-140-154-169-240700-
TEXAS TECH WEST TEXAS MESONET/PERMIAN BASIN/
CONCHO VALLEY/BIG COUNTRY/EDWARDS PLATEAU
  
CITY           SKY/WX    TMP DP  RH WIND       PRES   REMARKS
COYANOSA 2N      N/A     62  12  14 W10       29.74R                  
JUNCTION 1SSW    N/A     62  41  45 W3        29.69R                  
MERTZON 3NNE     N/A     61  27  28 SW3       29.68S                  
SAN ANGELO 7NW   N/A     59  30  34 W2        29.66S                  
STRLNG CT 4WSW   N/A     62  21  20 W5        29.68S                  
ST LAWRNCE 5SW   N/A     63  17  16 W9        29.69F                  
SWEETWATR 11SW   N/A     60  24  24 SW6       29.68R                  
WALL 1E          N/A     65  29  25 SW9       29.68R                  
$$

TXZ055-058-074-075-080-082-240700-
TEXAS TECH WEST TEXAS MESONET/FAR WEST/SOUTHWEST MOUNTAINS/TRANS PECOS
  
CITY           SKY/WX    TMP DP  RH WIND       PRES   REMARKS
PRSMN GAP BBNP   N/A     67  14  13 NW2       29.77R                  
GUADLPE MTN NP   N/A     52   3  13 W16       29.82S                  
$$
  

Return to Home page


Western Regional Climate Center, wrcc@dri.edu